Погода в Сидорах

Россия / Волгоградская область     50°07′21″N   43°20′10″E
темп.,
°C
ветер,
м/с
пор.,
м/с
влажн.,
%
обл.,
%
осадки,
мм/ч
давл.,
гПа
погр.,
м
25 июля, вс
вс2500:00+19ссв226839 0.0 101532
03:00+17св22767 0.0 101620
06:00+19всв24685 0.0 1017145
09:00+24всв33433 0.0 10181037
12:00+27св323451 0.0 10182701
15:00+27св653747 0.0 10181676
18:00+26св54377 0.0 10191447
21:00+20св46510 0.0 1020100
26 июля, пн
пн2600:00+18св47545 0.0 1022114
03:00+17всв35552 0.0 102285
06:00+18всв36539 0.0 1023149
09:00+25в44340 0.0 1023874
12:00+28всв32286 0.0 10222545
15:00+29с32257 0.0 10212974
18:00+28ссв653084 0.0 10201132
21:00+21всв5114622 0.0 1022284
27 июля, вт
вт2700:00+20в3947100 0.0 1022227
03:00+20всв364558 0.0 1022163
06:00+19св36495 0.0 1023158
09:00+26всв44300 0.0 10221232
12:00+28св33250 0.0 10212545
15:00+29ссв332425 0.0 10203012
18:00+28ссв652926 0.0 10201862
21:00+21всв454552 0.0 102075
28 июля, ср
ср2800:00+20св224813 0.0 102012
03:00+18ссз11554 0.0 102011
06:00+20ссв11530 0.0 102039
09:00+26ссз12365 0.0 1019812
12:00+30ссв12265 0.0 10182729
15:00+31зсз122323 0.0 10163056
18:00+30св112693 0.0 10161640
21:00+25ю223341 0.0 101518
29 июля, чт
чт2900:00+22ююв343819 0.0 101545
03:00+23ююз3735100 0.0 1014158
06:00+22ююз4104192 0.0 1013267
09:00+26зюз684299 0.0 1013696
12:00+22ююв2465100 0.6 1012148
15:00+27ююз485015 2.0 1011826
18:00+28юз6114558 0.3 1009855
21:00+23ю3666100 0.8 1009104